Погода в Саванне

США     32°04′55″N   81°05′48″W
темп.,
°C
ветер,
м/с
пор.,
м/с
влажн.,
%
обл.,
%
осадки,
мм/ч
давл.,
гПа
погр.,
м
15 мая, сб
сб1523:00+15всв23620 0.0 1024116
02:00+14св23660 0.0 1023127
05:00+12с24760 0.0 102468
08:00+15ссв36640 0.0 1026177
11:00+22всв46320 0.0 10261649
14:00+24вюв55332 0.0 10251757
17:00+22юв44374 0.0 10241085
20:00+17юв24563 0.0 1024133
16 мая, вс
вс1623:00+16юв23600 0.0 102497
02:00+15ююв12630 0.0 102382
05:00+15в11675 0.0 102385
08:00+18ссз115999 0.0 102683
11:00+24в233844 0.0 10261388
14:00+25юв43361 0.0 10251680
17:00+24ююв44410 0.0 10231062
20:00+19ююв35655 0.0 1023159
17 мая, пн
пн1723:00+17ююв24735 0.0 102397
02:00+16ююз127748 0.0 102355
05:00+16ю11785 0.0 102250
08:00+19св11665 0.0 1023133
11:00+25вюв334226 0.0 10241243
14:00+26юв44405 0.0 10231323
17:00+25юв4446100 0.0 1022988
20:00+20юв2573100 0.0 1022139
18 мая, вт
вт1823:00+19юв248268 0.0 102385
02:00+18вюв228767 0.0 102326
05:00+18всв228846 0.0 102246
08:00+22всв367413 0.1 1024470
11:00+25в565583 0.1 10251376
14:00+26в565385 0.1 10241405
17:00+25в565928 0.0 10231122
20:00+21в47805 0.0 1024499
19 мая, ср
ср1923:00+20в38845 0.0 1024379
02:00+20всв39855 0.0 1024419
05:00+20всв49815 0.1 1023539
08:00+22в58695 0.1 1025993
11:00+25всв67480 0.0 10261591
14:00+26в68526 0.0 10261734
17:00+24всв68560 0.0 10251454
20:00+21всв59765 0.0 1025659